Location: Unspecified
(0.0000°N, 0.0000°E)
Time: 11:04:54
(UTC+00:00)

Tiangong 2 - Pass Details

Date: 22 October 2017
Orbit: 387 x 389 km, 42.8° (Epoch: 18 December)

Event Time Altitude Azimuth Distance (km) Brightness Sun altitude
Rises 19:29:33 0° 241° (WSW) 2,260 6.2 -25.7°
Reaches altitude 10° 19:31:47 10° 253° (WSW) 1,403 4.9 -26.3°
Enters shadow 19:33:15 21° 274° (W) 937 3.7 -26.6°
